THOR ABLESTAR DEB, 48810

Orbit data source: Space-Track

THOR ABLESTAR DEB, 48810 is space debris in LEO originally from a launch on Thu, 29 Jun 1961 UTC launched from the Air Force Eastern Test Range (AFETR). Debris objects in space refer to the collection of defunct objects orbiting the Earth. Examples of debris include non-operational satellites, rocket bodies, and fragments generated from explosions, collisions, or faulty payload assembly.

Loading next visibility...
Identifier
48810, 1961-015MN
Orbit
LEO
Country
Flag of USUS
Related business
Manufacturer
Unknown
Mission
Spacecraft
Bus & Motor
Unknown
Mass
Unknown
Launch date (UTC)
1961-06-29 (65 years ago)
Launch vehicle
Unknown
Launch site
Air Force Eastern Test Range (AFETR)
Object type
Payload
Rocket body
Debris
Shape & HBR
Unknown shape, 0.1 m
Radar Cross Section
Small (<0.1 m²)

Expand to show TLE details & history
Last TLE update: 3 days ago

TLE from 3 days ago
0 THOR ABLESTAR DEB
1 48810U 61015MN  26122.19078238  .00000037  00000-0  86263-4 0  9994
2 48810  66.8568  30.4217 0128325 146.1106   5.6366 13.89363564630967
Epoch: 2026-05-02T04:34Z
TLE epoch observation values (Epoch: 2026-05-02T04:34:43.597Z)
Latitude
25.71809°
Longitude
-90.18892°
Altitude
839.814 km
Speed
7.483 km/s
True Right ascension
13h 14m 25s
True Declination
25° 35' 08"
Sunlit
Object was in full shadow at epoch
Visualization orbit readout
Latitude
Unknown
Longitude
Unknown
Altitude
Unknown
Speed
Unknown
Apparent Right ascension
Unknown
Apparent Declination
Unknown
Sunlit
N/A
Visualization observer readout
Local Sidereal Time
13:15:20
Azimuth
Unknown
Elevation
Unknown
Doppler factor
Unknown
Orbital elements
Apogee altitude
1,023.022 km
Perigee altitude
835.478 km
Semi-major axis
7,307.387 km
Eccentricity
0.01283
Inclination
66.8568°
RAAN
30.4217°
Arg. of periapsis
146.1106°
True anomaly
5.78337°
Mean anomaly
5.6366°
Eccentric anomaly
5.70975°
Mean motion
3.47456 °/min
Orbital period
103.61 mins
BSTAR
0.000086263
Loading maneuver chart data...
Computing Atmospheric mass density...
Loading historical data...
Loading historical data...
Loading historical data...
Loading historical data...
Loading historical data...
Loading historical data...
Loading historical data...

Documentation

Showing up to 5 results
|